TimeEST,TemperatureF,Dew PointF,Humidity,Sea Level PressureIn,VisibilityMPH,Wind Direction,Wind SpeedMPH,Gust SpeedMPH,PrecipitationIn,Events,Conditions,WindDirDegrees,DateUTC
12:53 AM,50.0,42.1,74,30.15,10.0,NNE,6.9,-,N/A,,Clear,30,2013-03-04 05:53:00
1:53 AM,46.0,39.9,79,30.15,10.0,ENE,8.1,-,N/A,,Clear,60,2013-03-04 06:53:00
2:53 AM,44.1,37.0,76,30.15,10.0,ENE,5.8,-,N/A,,Clear,60,2013-03-04 07:53:00
4:53 AM,43.0,36.0,76,30.18,10.0,ENE,5.8,-,N/A,,Overcast,70,2013-03-04 09:53:00
5:53 AM,42.1,35.1,76,30.18,10.0,East,3.5,-,N/A,,Clear,80,2013-03-04 10:53:00
7:53 AM,46.0,36.0,68,30.21,10.0,NE,6.9,-,N/A,,Clear,50,2013-03-04 12:53:00
8:53 AM,51.1,36.0,56,30.22,10.0,NNE,12.7,-,N/A,,Clear,20,2013-03-04 13:53:00
9:53 AM,54.0,37.9,55,30.23,10.0,NNE,5.8,16.1,N/A,,Clear,20,2013-03-04 14:53:00
10:53 AM,59.0,39.0,48,30.22,10.0,NNE,9.2,-,N/A,,Clear,30,2013-03-04 15:53:00
11:53 AM,61.0,37.0,41,30.21,10.0,Variable,5.8,-,N/A,,Clear,0,2013-03-04 16:53:00
12:53 PM,63.0,37.0,38,30.18,10.0,Calm,Calm,-,N/A,,Clear,0,2013-03-04 17:53:00
1:53 PM,62.1,41.0,46,30.16,10.0,WSW,10.4,-,N/A,,Clear,250,2013-03-04 18:53:00
2:53 PM,63.0,42.1,46,30.15,10.0,West,9.2,-,N/A,,Clear,280,2013-03-04 19:53:00
3:53 PM,64.0,42.1,45,30.14,10.0,WNW,6.9,-,N/A,,Clear,300,2013-03-04 20:53:00
4:53 PM,63.0,44.1,50,30.14,10.0,West,9.2,-,N/A,,Clear,280,2013-03-04 21:53:00
5:53 PM,61.0,45.0,56,30.14,10.0,NNW,6.9,-,N/A,,Clear,330,2013-03-04 22:53:00
6:53 PM,59.0,46.0,62,30.16,10.0,NNW,3.5,-,N/A,,Clear,330,2013-03-04 23:53:00
7:53 PM,57.9,46.9,67,30.17,10.0,Calm,Calm,-,N/A,,Clear,0,2013-03-05 00:53:00
8:53 PM,55.9,46.9,72,30.18,10.0,NNE,3.5,-,N/A,,Clear,20,2013-03-05 01:53:00
9:53 PM,53.1,46.0,77,30.18,10.0,ENE,3.5,-,N/A,,Clear,60,2013-03-05 02:53:00
10:53 PM,53.1,45.0,74,30.18,10.0,Calm,Calm,-,N/A,,Clear,0,2013-03-05 03:53:00
11:53 PM,50.0,46.0,86,30.18,10.0,Calm,Calm,-,N/A,,Clear,0,2013-03-05 04:53:00